TimeEDT,TemperatureF,Dew PointF,Humidity,Sea Level PressureIn,VisibilityMPH,Wind Direction,Wind SpeedMPH,Gust SpeedMPH,PrecipitationIn,Events,Conditions,WindDirDegrees,DateUTC
12:15 AM,42.1,24.6,50,30.24,10.0,WNW,15.0,19.6,N/A,,Clear,300,2013-03-14 04:15:00
12:35 AM,41.4,24.8,52,30.24,10.0,WNW,10.4,-,N/A,,Clear,300,2013-03-14 04:35:00
12:55 AM,40.6,24.6,53,30.24,10.0,NW,6.9,17.3,N/A,,Clear,310,2013-03-14 04:55:00
1:15 AM,39.9,24.6,54,30.24,10.0,NW,10.4,17.3,N/A,,Clear,310,2013-03-14 05:15:00
1:35 AM,39.2,24.6,56,30.24,10.0,WNW,8.1,-,N/A,,Clear,300,2013-03-14 05:35:00
1:55 AM,38.3,24.8,58,30.25,10.0,WNW,10.4,-,N/A,,Clear,300,2013-03-14 05:55:00
2:15 AM,37.8,24.8,60,30.25,10.0,NW,6.9,-,N/A,,Clear,310,2013-03-14 06:15:00
2:35 AM,37.4,24.6,60,30.26,10.0,NW,8.1,-,N/A,,Clear,310,2013-03-14 06:35:00
2:55 AM,36.7,24.6,62,30.26,10.0,NW,6.9,-,N/A,,Clear,310,2013-03-14 06:55:00
3:15 AM,36.5,24.3,61,30.26,10.0,NW,8.1,-,N/A,,Clear,310,2013-03-14 07:15:00
3:55 AM,35.1,24.1,64,30.27,10.0,WNW,8.1,-,N/A,,Clear,300,2013-03-14 07:55:00
4:15 AM,34.5,24.3,66,30.28,10.0,NW,5.8,-,N/A,,Clear,320,2013-03-14 08:15:00
4:35 AM,34.3,23.9,66,30.28,10.0,NW,5.8,-,N/A,,Clear,310,2013-03-14 08:35:00
4:55 AM,33.8,23.9,67,30.28,10.0,NW,4.6,-,N/A,,Clear,310,2013-03-14 08:55:00
5:15 AM,33.1,23.7,68,30.29,10.0,NW,5.8,-,N/A,,Clear,310,2013-03-14 09:15:00
5:35 AM,31.8,23.9,73,30.29,10.0,NW,3.5,-,N/A,,Clear,310,2013-03-14 09:35:00
5:55 AM,31.6,23.7,73,30.30,10.0,Calm,Calm,-,N/A,,Clear,0,2013-03-14 09:55:00
6:15 AM,30.0,24.1,79,30.31,10.0,Calm,Calm,-,N/A,,Clear,0,2013-03-14 10:15:00
6:35 AM,29.5,23.5,79,30.32,10.0,West,4.6,-,N/A,,Clear,280,2013-03-14 10:35:00
6:55 AM,29.3,23.9,80,30.32,10.0,Calm,Calm,-,N/A,,Clear,0,2013-03-14 10:55:00
7:15 AM,27.5,24.1,87,30.33,10.0,Calm,Calm,-,N/A,,Clear,0,2013-03-14 11:15:00
7:35 AM,27.3,24.3,88,30.34,10.0,Calm,Calm,-,N/A,,Clear,0,2013-03-14 11:35:00
7:55 AM,27.3,24.4,89,30.34,10.0,Calm,Calm,-,N/A,,Clear,0,2013-03-14 11:55:00
8:15 AM,28.2,25.3,89,30.35,10.0,Calm,Calm,-,N/A,,Clear,0,2013-03-14 12:15:00
8:35 AM,29.1,27.0,92,30.36,10.0,WNW,3.5,-,N/A,,Clear,290,2013-03-14 12:35:00
8:55 AM,32.2,25.0,75,30.36,10.0,NNW,3.5,-,N/A,,Clear,330,2013-03-14 12:55:00
9:15 AM,33.8,24.8,70,30.37,10.0,Calm,Calm,-,N/A,,Clear,0,2013-03-14 13:15:00
9:35 AM,35.1,24.6,66,30.38,10.0,Calm,Calm,-,N/A,,Clear,0,2013-03-14 13:35:00
9:55 AM,37.6,25.5,62,30.38,10.0,NE,4.6,-,N/A,,Clear,40,2013-03-14 13:55:00
10:15 AM,39.0,23.7,54,30.37,10.0,East,5.8,-,N/A,,Clear,90,2013-03-14 14:15:00
10:35 AM,40.5,23.9,52,30.38,10.0,Calm,Calm,-,N/A,,Clear,0,2013-03-14 14:35:00
10:55 AM,40.8,23.9,51,30.39,10.0,NE,4.6,-,N/A,,Clear,40,2013-03-14 14:55:00
11:15 AM,41.0,24.4,52,30.38,10.0,Calm,Calm,-,N/A,,Clear,0,2013-03-14 15:15:00
11:35 AM,42.6,24.6,49,30.38,10.0,Calm,Calm,-,N/A,,Clear,0,2013-03-14 15:35:00
11:55 AM,43.5,25.0,48,30.38,10.0,Calm,Calm,-,N/A,,Clear,0,2013-03-14 15:55:00
12:15 PM,44.6,24.8,46,30.39,10.0,WNW,5.8,-,N/A,,Clear,300,2013-03-14 16:15:00
12:35 PM,45.0,25.0,46,30.37,10.0,Calm,Calm,-,N/A,,Clear,0,2013-03-14 16:35:00
12:55 PM,46.9,25.5,43,30.36,7.0,WNW,4.6,-,N/A,,Clear,290,2013-03-14 16:55:00
1:35 PM,49.8,27.0,41,30.34,10.0,NW,8.1,-,N/A,,Clear,320,2013-03-14 17:35:00
1:55 PM,50.0,26.1,39,30.33,10.0,NW,4.6,-,N/A,,Clear,310,2013-03-14 17:55:00
2:15 PM,51.3,26.4,38,30.32,10.0,NW,5.8,-,N/A,,Clear,320,2013-03-14 18:15:00
2:35 PM,52.0,27.7,39,30.30,10.0,Calm,Calm,-,N/A,,Clear,0,2013-03-14 18:35:00
2:55 PM,52.0,27.3,39,30.29,10.0,Calm,Calm,-,N/A,,Clear,0,2013-03-14 18:55:00
3:15 PM,52.7,27.5,38,30.29,10.0,West,5.8,-,N/A,,Clear,280,2013-03-14 19:15:00
3:35 PM,54.1,26.6,35,30.28,10.0,North,4.6,-,N/A,,Clear,10,2013-03-14 19:35:00
3:55 PM,54.5,27.1,35,30.27,10.0,WSW,8.1,-,N/A,,Clear,240,2013-03-14 19:55:00
4:15 PM,54.9,27.1,34,30.26,10.0,WNW,12.7,16.1,N/A,,Clear,300,2013-03-14 20:15:00
4:35 PM,55.0,25.5,32,30.25,10.0,NNW,5.8,-,N/A,,Clear,330,2013-03-14 20:35:00
4:55 PM,55.2,25.7,32,30.25,10.0,North,6.9,-,N/A,,Clear,360,2013-03-14 20:55:00
5:15 PM,55.8,26.8,33,30.25,10.0,NW,4.6,-,N/A,,Clear,310,2013-03-14 21:15:00
5:35 PM,55.6,27.7,34,30.25,10.0,WSW,8.1,16.1,N/A,,Clear,250,2013-03-14 21:35:00
5:55 PM,55.9,27.5,34,30.24,10.0,WSW,5.8,-,N/A,,Clear,250,2013-03-14 21:55:00
6:15 PM,55.9,27.7,34,30.25,10.0,West,9.2,-,N/A,,Clear,270,2013-03-14 22:15:00
6:35 PM,55.6,27.1,34,30.24,10.0,WNW,6.9,-,N/A,,Clear,290,2013-03-14 22:35:00
6:55 PM,54.7,26.8,34,30.24,10.0,West,4.6,-,N/A,,Clear,280,2013-03-14 22:55:00
7:15 PM,52.7,28.8,40,30.24,10.0,WSW,3.5,-,N/A,,Clear,240,2013-03-14 23:15:00
7:35 PM,50.0,29.8,46,30.24,10.0,WSW,4.6,-,N/A,,Clear,250,2013-03-14 23:35:00
7:55 PM,47.3,30.4,52,30.25,10.0,Calm,Calm,-,N/A,,Clear,0,2013-03-14 23:55:00
8:15 PM,45.0,32.0,60,30.24,10.0,Calm,Calm,-,N/A,,Clear,0,2013-03-15 00:15:00
8:35 PM,43.5,31.8,63,30.24,10.0,Calm,Calm,-,N/A,,Clear,0,2013-03-15 00:35:00
8:55 PM,41.0,32.0,70,30.24,10.0,Calm,Calm,-,N/A,,Clear,0,2013-03-15 00:55:00
9:15 PM,39.6,32.0,74,30.24,10.0,Calm,Calm,-,N/A,,Clear,0,2013-03-15 01:15:00
9:35 PM,39.2,32.0,75,30.24,10.0,Calm,Calm,-,N/A,,Clear,0,2013-03-15 01:35:00
9:55 PM,37.9,32.0,79,30.25,10.0,Calm,Calm,-,N/A,,Clear,0,2013-03-15 01:55:00
10:15 PM,36.9,32.0,83,30.26,10.0,Calm,Calm,-,N/A,,Clear,0,2013-03-15 02:15:00
10:35 PM,36.5,31.1,81,30.26,10.0,West,5.8,-,N/A,,Clear,270,2013-03-15 02:35:00
10:55 PM,43.0,27.3,54,30.27,10.0,WNW,8.1,-,N/A,,Clear,290,2013-03-15 02:55:00
11:15 PM,43.5,25.9,50,30.27,10.0,WNW,8.1,-,N/A,,Scattered Clouds,290,2013-03-15 03:15:00
11:35 PM,43.9,24.8,47,30.26,10.0,WNW,8.1,-,N/A,,Scattered Clouds,300,2013-03-15 03:35:00
11:55 PM,42.8,25.3,50,30.26,10.0,WNW,4.6,-,N/A,,Clear,290,2013-03-15 03:55:00